Weather in Dombay

Russia / Karachay-Cherkess Republic     43˚17′23″N   41˚37′29″E
temp.,
°C
wind,
m/s
gust,
m/s
humid.,
%
clouds,
%
prec.,
mm/h
press.,
hPa
HPBL,
m
2 december, wed
wed200:00−6˚nnw1173100 0.0 102321
03:00−6˚n1179100 0.0 102322
06:00−5˚nne1180100 0.0 102322
09:00−2˚e018593 0.0 102324
12:00−1˚se129998 0.1 1023163
15:00−1˚s119997 0.2 1022131
18:00−4˚e1295100 0.1 102322
21:00−4˚e129598 0.3 102422
3 december, thu
thu300:00−3˚se029896 0.3 102523
03:00−4˚se029697 0.4 102522
06:00−5˚ne119377 0.0 102522
09:00−2˚ene118984 0.0 102523
12:00ssw119859 0.0 1024258
15:00−1˚sw019768 0.2 1023129
18:00−6˚ne118836 0.0 102422
21:00−6˚nne118738 0.0 102422
4 december, fri
fri400:00−6˚nne118514 0.0 102423
03:00−7˚n21820 0.0 102323
06:00−6˚nne22780 0.0 102323
09:00−3˚nne22770 0.0 102324
12:00ssw11890 0.0 1021359
15:00−1˚ssw11880 0.1 1020229
18:00−7˚nne22820 0.0 102223
21:00−7˚nne22730 0.0 102223
5 december, sat
sat500:00−8˚nne21740 0.0 102223
03:00−8˚n22800 0.0 102223
06:00−8˚nne22720 0.0 102124
09:00−5˚nne22620 0.0 102125
12:00−1˚ssw11770 0.0 1020355
15:00−2˚ssw118518 0.0 1019260
18:00−7˚nne1186100 0.0 102022
21:00−8˚nnw1186100 0.0 102022
6 december, sun
sun600:00−9˚n118373 0.0 102022
03:00−10˚n118636 0.0 102123
06:00−10˚nne11870 0.0 102123
09:00−7˚ne11869 0.0 102126
12:00−3˚s228562 0.1 1020556
15:00−4˚s228665 0.3 1019479
18:00−9˚ene119669 0.1 102121
21:00−10˚ene129267 0.1 102223